Huntsville, AL

12:19 AM CDT on September 30, 2016 (GMT -0500)
Huntsville International

Weather History for KHSV - April, 2011

Change the Weather History Date:

Friday, April 8, 2011

  Actual Average Record
Temperature  
Mean Temperature 75 °F 60 °F  
Max Temperature 85 °F 72 °F 86 °F (1967)
Min Temperature 65 °F 48 °F 26 °F (2007)
Degree Days  
Heating Degree Days 0 7  
Month to date heating degree days 55 60  
Since 1 July heating degree days 3031 2880  
Cooling Degree Days 10 1  
Month to date cooling degree days 10 8  
Year to date cooling degree days 25 22  
Growing Degree Days 24 (Base 50)    
Moisture  
Dew Point 64 °F    
Average Humidity 67    
Maximum Humidity 87    
Minimum Humidity 47    
Precipitation  
Precipitation T in 0.15 in 2.32 in (1991)
Month to date precipitation 2.25 1.18  
Year to date precipitation 19.97 16.12  
Snow  
Snow 0.00 in - - ()
Month to date snowfall 0.0  
Since 1 July snowfall 14.3  
Snow Depth 0.00 in    
Sea Level Pressure  
Sea Level Pressure 29.97 in    
Wind  
Wind Speed 8 mph (SSW)    
Max Wind Speed 15 mph    
Max Gust Speed 20 mph    
Visibility 10 miles    
Events Rain    
T = Trace of Precipitation, MM = Missing Value Source: NWS Daily Summary

Daily Weather History Graph

Daily Weather History Graph

Search for Another Location

Airport or City:

Trip Planner

Search our weather history database for the weather conditions in past years. The results will help you decide how hot, cold, wet, or windy it might be!

Date:

Astronomy

Apr. 08, 2011 Rise Set
Actual Time 6:25 AM CDT 7:13 PM CDT
Civil Twilight 5:59 AM CDT 7:39 PM CDT
Nautical Twilight 5:29 AM CDT 8:09 PM CDT
Astronomical Twilight 4:58 AM CDT 8:40 PM CDT
Moon 9:21 AM CDT (4/8) No Moon Set
Length of Visible Light 13h 39m
Length of Day
12h 48m
Waxing Crescent, 23% of the Moon is Illuminated
Apr 8
Waxing Crescent
Apr 11
First Quarter
Apr 17
Full
Apr 24
Last Quarter
May 3
New

Hourly Weather History & Observations

Time (CDT) Temp. Heat Index Dew Point Humidity Pressure Visibility Wind Dir Wind Speed Gust Speed Precip Events Conditions
12:53 AM 66.9 °F - 57.0 °F 70% 29.92 in 10.0 mi SSE 13.8 mph - N/A   Partly Cloudy
1:53 AM 64.9 °F - 57.9 °F 78% 29.92 in 10.0 mi South 5.8 mph - N/A   Clear
2:36 AM 66.2 °F - 60.8 °F 83% 29.95 in 10.0 mi SW 6.9 mph - N/A   Mostly Cloudy
2:53 AM 68.0 °F - 61.0 °F 78% 29.94 in 10.0 mi SSW 6.9 mph - N/A   Overcast
3:53 AM 68.0 °F - 63.0 °F 84% 29.94 in 10.0 mi SSW 8.1 mph - N/A   Overcast
4:53 AM 68.0 °F - 63.0 °F 84% 29.94 in 10.0 mi South 11.5 mph - N/A   Overcast
5:53 AM 68.0 °F - 63.0 °F 84% 29.94 in 10.0 mi SSW 11.5 mph - N/A   Overcast
6:53 AM 68.0 °F - 64.0 °F 87% 29.95 in 9.0 mi South 9.2 mph - N/A   Mostly Cloudy
7:53 AM 69.1 °F - 64.9 °F 87% 29.98 in 10.0 mi SSW 8.1 mph - N/A   Overcast
8:53 AM 70.0 °F - 64.9 °F 84% 30.00 in 10.0 mi SSW 10.4 mph - 0.00 in Rain Light Rain
9:53 AM 71.1 °F - 66.0 °F 84% 30.00 in 9.0 mi SSW 9.2 mph - 0.00 in   Mostly Cloudy
10:53 AM 75.0 °F - 66.9 °F 76% 30.00 in 10.0 mi SW 10.4 mph - N/A   Mostly Cloudy
11:10 AM 75.2 °F - 66.2 °F 73% 30.02 in 10.0 mi WSW 12.7 mph 19.6 mph N/A   Mostly Cloudy
11:44 AM 77.0 °F - 66.2 °F 69% 30.01 in 10.0 mi SW 10.4 mph - N/A   Scattered Clouds
11:53 AM 78.1 °F - 66.0 °F 66% 30.00 in 10.0 mi WSW 9.2 mph - N/A   Scattered Clouds
12:53 PM 79.0 °F - 64.9 °F 62% 29.98 in 10.0 mi SW 9.2 mph - N/A   Scattered Clouds
1:53 PM 82.0 °F 83.4 °F 64.0 °F 54% 29.96 in 10.0 mi SW 12.7 mph - N/A   Scattered Clouds
2:53 PM 82.9 °F 84.0 °F 63.0 °F 51% 29.96 in 10.0 mi West 9.2 mph 18.4 mph N/A   Mostly Cloudy
3:53 PM 84.9 °F 85.4 °F 62.1 °F 46% 29.93 in 10.0 mi WSW 8.1 mph - N/A   Mostly Cloudy
4:53 PM 82.9 °F 83.3 °F 61.0 °F 47% 29.94 in 10.0 mi WSW 8.1 mph - N/A   Scattered Clouds
5:53 PM 82.9 °F 84.4 °F 64.0 °F 53% 29.94 in 10.0 mi SW 6.9 mph - N/A   Scattered Clouds
6:53 PM 79.0 °F - 64.0 °F 60% 29.95 in 10.0 mi SSW 4.6 mph - N/A   Partly Cloudy
7:53 PM 75.0 °F - 66.0 °F 73% 29.96 in 10.0 mi SSW 4.6 mph - N/A   Clear
8:53 PM 73.9 °F - 64.0 °F 71% 29.97 in 10.0 mi SSW 4.6 mph - N/A   Clear
9:53 PM 72.0 °F - 64.0 °F 76% 29.98 in 10.0 mi South 5.8 mph - N/A   Scattered Clouds
10:53 PM 72.0 °F - 66.0 °F 81% 30.00 in 10.0 mi South 5.8 mph - N/A   Partly Cloudy
11:53 PM 72.0 °F - 66.0 °F 81% 30.00 in 10.0 mi South 5.8 mph - N/A   Clear